Погода Котельниково

Погода Котельниково : погода сейчас, прогноз погоды и архив. Всё, что Вы хотите узнать о погоде Котельниково!

Поиск расширенной информации на нашем сайте:

Другие новости

Новости СМИ2

Главная страница сайта

Новости сайта

02.10.2013

Напоминаем, что на нашем новом сайте вы можете получить высокодетализированные прогнозы погоды по пунктам России, СНГ и мира (включающие важные для авиации метеовеличины, такие как направление и скорость ветра, видимость, явления погоды, количество и форма облачности, нижняя и верхняя граница облачности), а также ознакомиться с разнообразными материалами по авиационной метеорологии и подборкой полезных ссылок на эту тему.

Сайт Метеоцентр.Азия посвящён разработке технологий оптимизации авиаметеорологического обслуживания, включая проектирование и перспективное создание нескольких автоматизированных авиаметеорологических систем:
- система выпуска высокодетальных прогностических карт явлений погоды для нижнего воздушного пространства по России и ближнему зарубежью;
- система верификации прогнозов TAF (выпускаемых синоптиками официальных АМСГ РФ и ближнего зарубежья) и AUTOTAF (выпускаемых сайтом Метеоцентр.Азия) - выявление ошибок, онлайн-сопоставление с фактической погодой METAR, автоматическое внесение коррективов в прогнозы при резком отклонении фактической погоды от прогноза, подсчёт оправдываемости прогнозов по элементам и в целом;
- система обработки, анализа и отображения авиаметеорологической информации для применения провайдерами метеорологической информации.


Погода Котельниково - сегодня

Время (UTC), дата Ветер
(°,м/с) 
Видим.   Явления Облачность Т
(°С)
Тd
(°С)
f(%) Тe
(°С)
Pmin
(гПа)
dP
(гПа)
Po
(мм)
O2
(г/м3)
Тmin Tmax R s Состояние
почвы
06 24.02.17 260 (З) 4{10}  10 км    3/0 средняя 
[As trans]
+2.8 -0.1 81 +1  1010.7  754  301  +1.3         
09 24.02.17 240 (ЮЗ) 6-10{11}  10 км    6/0 средняя 
[Ac trans]
+5.6 +0.9 72 +3  1011.9  1.2  754  298           
12 24.02.17 210 (ЮЗ) 2{10}  10 км  слаб. дождь  10/10 300 м 
[Frnb|Ns]
+5.4 +1.9 78 +5  1011.2  -0.7  754  298           
15 24.02.17 180 (Ю) 10 км  {дождь}  10/10 600 м 
[Sc]
+4.9 +3 87 +3  1010.9  -0.3  754  298    +6.1  0.0     
18 24.02.17 180 (Ю) 10 км    10/10 600 м 
[Sc]
+5.6 +3.4 86 +4  1010.3  -0.5  753  297           
21 24.02.17 220 (ЮЗ) 6{11}  10 км    10/10 600 м 
[Sc]
+7.4 +3.6 77 +5  1009.8  -0.5  753  295           
00 25.02.17 220 (ЮЗ) 6{13}  10 км    10/10 600 м 
[Sc]
+6.8 +2.2 72 +5  1010  0.2  753  296           
03 25.02.17 210 (ЮЗ) 4{10}  10 км    10/10 600 м 
[Sc]
+5.3 +1.5 76 +4  1010.5  0.4  753  298  +4.6         
06 25.02.17 230 (ЮЗ) 6{11}  н/о    н/о 
+7.4 +2.5 71 +5  1011.1  0.7  754  295           
09 25.02.17 230 (ЮЗ) 7-12{13}  10 км    10/5 600 м средняя 
[Sc|Ac trans]
+11.5 +5.7 68 +10  1010.5  0.7  754  290           
12 25.02.17 210 (ЮЗ) 8-13{13}  10 км    10/10 600 м 
[Sc]
+11.5 +6.6 72 +10  1008.4  -2.1  752  290           
15 25.02.17 220 (ЮЗ) 9-14{14}  10 км  слаб. дождь  10/10 300 м 
[Frnb|Ns]
+10.6 +7.1 79 +8  1007.3  -1.1  751  290    +12.2  0.0     
18 25.02.17 220 (ЮЗ) 9-13{16}  4000 м  дождь  10/10 300 м 
[Frnb|Ns]
+9.1 +7 87 +7  1006.9  -0.5  751  292           
21 25.02.17 290 (З) 5{15}  10 км  слаб. дождь  10/10 300 м 
[Frnb|Ns]
+1 -0.2 92 -2  1010.6  3.5  753  302           
00 26.02.17 300 (СЗ) 4{12}  10 км  {ливн. осадки, дождь}  10/10 600 м 
[Sc diur, vesp]
-0.9 -2.3 90 -3  1014.6  3.9  756  306           
03 26.02.17 280 (З) 10 км    ясно 
-2 -4.4 84 -5  1018.2  3.5  759  309  -2       
06 26.02.17 250 (З) 7-10{10}  10 км    ясно 
-1.2 -4.4 79 -5  1020.9  2.7  761  309  -2.5         
09 26.02.17 260 (З) 8-11{12}  10 км    4/0 средняя 
[Ac trans]
+1.7 -3.4 69 -2  1021.9  762  305           
12 26.02.17 270 (З) 7-11{15}  10 км    8/8 600 м 
[Sc]
+2.5 -4.4 60 -1  1022.2  0.3  762  305           
15 26.02.17 260 (З) 4{13}  10 км    10/10 600 м 
[Sc]
+0.2 -3.7 75 -2  1023.6  0.3  763  308    +2.8       
18 26.02.17 250 (З) 10 км    ясно 
-0.1 -3.6 77 -2  1024.3  0.7  764  308           
21 26.02.17 210 (ЮЗ) 10 км    ясно 
-1.1 -3.5 84 -2  1024.3  764  309           
00 27.02.17 210 (ЮЗ) 10 км    8/8 600 м 
[Sc]
-0.2 -2.7 83 -2  1023.3  -1  763  308           
03 27.02.17 210 (ЮЗ) 10 км    5/0 средняя 
[Ac trans]
-0.9 -3.1 85 -3  1023.7  0.4  763  309  -1.2         
06 27.02.17 220 (ЮЗ) 10 км    8/0 средняя 
[Ac trans]
+0.8 -3.8 71 -2  1023.5  -0.2  763  307  -1.4         
Время (UTC), дата Ветер
(°,м/с) 
Видим.   Явления Облачность Т
(°С)
Тd
(°С)
f(%) Тe
(°С)
Pmin
(гПа)
dP
(гПа)
Po
(мм)
O2
(г/м3)
Тmin Tmax R s Состояние
почвы

Для получения пояснительной информации подведите курсор к названию столбца.

ПОГОДА Котельниково - архив

Всё, что Вы хотите узнать о погоде Котельниково - удобно и подробно!

Выберите нужную дату (начиная с 1 января 2015* года) и нажмите кнопку "Найти".
Будут отображены архивные сводки погоды по пункту Котельниково, начиная с указанной даты.


Отображать данные в формате CSV (для использования в таблицах Excel)


Внимание! Наш архив погоды предназначен исключительно для личного некоммерческого использования в познавательных целях. Если Вам необходимы официальные справки о состоянии погоды (для производственных, юридических, коммерческих и т.п. целей), обращайтесь в органы Росгидромета.

*Примечание: данная дата относится к архиву по метеостанциям СССР (Россия, СНГ, Балтия).
Архив по метеостанциям Зарубежной Европы и Азии (кроме Китая) хранится 10 дней, по другим регионам земного шара (Китай, Африка, Америка, Австралия, Океания) - 1 день.

Котельниково - район местоположения метеостанции


Название, широта, долгота, высота метеостанции:
Котельниково 47.6°ш. 43.2°д. 49 м над ур. моря [Российская Федерация]

Дополнительная информация

В oтличие oт бoльшинства пoгoдных сайтoв мы публикуем пoдрoбную метеoинфoрмацию в детальнoм прoфессиoнальнoм фoрмате.

Характеристики температуры и влажнoсти вoздуха измеряются на высoте 2 м в тени вдали oт зданий и деревьев.
Скoрoсть ветра измеряется на высoте 10 м (на урoвне рoста челoвека скoрoсть ветра ниже в 1.5-2 раза). Если метеoстанция нахoдится в гoрoде или в лесу, тo скoрoсть ветра занижена на 2-4 м/с пo сравнению с oткрытым местoм. Скoрoсть ветра над акватoриями крупных рек и oзёр, а также на вершинах хoлмoв на 2-5 м/с выше, чем в oбычных услoвиях.
Атмoсфернoе давление в разных тoчках местнoсти мoжет значительнo oтличаться oт давления на метеoстанции, в зависимoсти oт услoвий рельефа (при пoдъёме на 10 м давление пoнижается примернo на 1 мм рт.ст.).